Leesburg, FL

11:59 PM EST on December 09, 2019 (GMT -0500)
Leesburg Regional

Weather History for KLEE - October, 2019

Change the Weather History Date:

Tuesday, October 1, 2019

  Actual Average Record
Temperature  
Mean Temperature 83 °F -  
Max Temperature 91 °F 85 °F 93 °F (1959)
Min Temperature 75 °F 67 °F 57 °F (2001)
Cooling Degree Days 18    
Growing Degree Days 33 (Base 50)    
Moisture  
Dew Point 70 °F    
Average Humidity 72    
Maximum Humidity 91    
Minimum Humidity 45    
Precipitation  
Precipitation 0.11 in - - ()
Sea Level Pressure  
Sea Level Pressure 30.01 in    
Wind  
Wind Speed 8 mph (NE)    
Max Wind Speed 18 mph    
Max Gust Speed 28 mph    
Visibility 9 miles    
Events Rain    
Averages and records for this station are not official NWS values.
T = Trace of Precipitation, MM = Missing Value Source: NWS Daily Summary

Daily Weather History Graph

Daily Weather History Graph

Search for Another Location

Airport or City:

Astronomy

Oct. 01, 2019 Rise Set
Actual Time 7:20 AM EDT 7:13 PM EDT
Civil Twilight 6:56 AM EDT 7:36 PM EDT
Nautical Twilight 6:29 AM EDT 8:04 PM EDT
Astronomical Twilight 6:01 AM EDT 8:31 PM EDT
Moon 10:21 AM EDT (10/1) 9:41 PM EDT (10/1)
Length of Visible Light 12h 40m
Length of Day
11h 53m
Waxing Crescent, 12% of the Moon is Illuminated
Oct 1
Waxing Crescent
Oct 5
First Quarter
Oct 13
Full
Oct 21
Last Quarter
Oct 27
New

Hourly Weather History & Observations

Time (EDT) Temp. Heat Index Dew Point Humidity Pressure Visibility Wind Dir Wind Speed Gust Speed Precip Events Conditions
12:53 AM 78.1 °F - 73.9 °F 87% 30.02 in 9.0 mi NNE 4.6 mph - N/A   Clear
1:53 AM 77.0 °F - 73.9 °F 90% 30.01 in 8.0 mi North 4.6 mph - N/A   Clear
2:53 AM 77.0 °F - 73.0 °F 88% 29.99 in 9.0 mi NE 5.8 mph - N/A   Partly Cloudy
3:53 AM 75.9 °F - 73.0 °F 91% 29.98 in 9.0 mi NE 6.9 mph - N/A   Clear
4:53 AM 75.9 °F - 73.0 °F 91% 29.98 in 9.0 mi NE 5.8 mph - N/A   Clear
5:53 AM 75.0 °F - 72.0 °F 90% 29.99 in 8.0 mi NNE 3.5 mph - N/A   Clear
6:53 AM 75.0 °F - 71.1 °F 87% 30.00 in 9.0 mi NE 4.6 mph - N/A   Clear
7:53 AM 75.9 °F - 72.0 °F 87% 30.01 in 10.0 mi NNE 6.9 mph - N/A   Partly Cloudy
8:53 AM 79.0 °F - 73.0 °F 82% 30.02 in 10.0 mi NE 6.9 mph - N/A   Clear
9:53 AM 84.0 °F 89.6 °F 72.0 °F 67% 30.03 in 10.0 mi NE 13.8 mph - N/A   Clear
10:53 AM 87.1 °F 92.8 °F 71.1 °F 59% 30.04 in 10.0 mi ENE 13.8 mph 20.7 mph N/A   Partly Cloudy
11:53 AM 89.1 °F 94.1 °F 70.0 °F 53% 30.04 in 10.0 mi ENE 10.4 mph 20.7 mph N/A   Scattered Clouds
12:36 PM 80.1 °F 83.6 °F 71.1 °F 74% 30.04 in 1.8 mi ESE 13.8 mph 27.6 mph 0.10 in Rain Light Rain
12:43 PM 78.1 °F - 72.0 °F 81% 30.04 in 10.0 mi ESE 9.2 mph 19.6 mph 0.11 in Rain Light Rain
12:53 PM 80.1 °F 84.5 °F 73.9 °F 81% 30.03 in 10.0 mi East 6.9 mph - 0.11 in   Mostly Cloudy
1:53 PM 88.0 °F 92.1 °F 69.1 °F 53% 30.01 in 10.0 mi ENE 12.7 mph 20.7 mph N/A   Scattered Clouds
2:53 PM 91.0 °F 94.3 °F 66.9 °F 45% 29.99 in 10.0 mi ENE 18.4 mph 24.2 mph N/A   Partly Cloudy
3:53 PM 90.0 °F 92.8 °F 66.9 °F 46% 29.98 in 10.0 mi ENE 13.8 mph 24.2 mph N/A   Clear
4:53 PM 89.1 °F 91.0 °F 64.9 °F 45% 29.97 in 10.0 mi ENE 15.0 mph 25.3 mph N/A   Clear
5:53 PM 87.1 °F 89.2 °F 66.0 °F 49% 29.97 in 10.0 mi ENE 13.8 mph - N/A   Clear
6:53 PM 84.0 °F 86.5 °F 66.9 °F 56% 29.99 in 10.0 mi NE 15.0 mph 21.9 mph N/A   Clear
7:53 PM 81.0 °F 83.3 °F 66.9 °F 62% 29.99 in 10.0 mi ENE 9.2 mph - N/A   Clear
8:53 PM 79.0 °F - 68.0 °F 69% 30.00 in 10.0 mi NE 5.8 mph - N/A   Clear
9:53 PM 78.1 °F - 69.1 °F 74% 30.01 in 10.0 mi NE 4.6 mph - N/A   Clear
11:53 PM 75.9 °F - 71.1 °F 85% 30.00 in 10.0 mi NE 4.6 mph - N/A   Clear